Location: Clinton NY
(43.0598°N, 75.3602°W)
Time: 05:45:11
(UTC-05:00)

ISS - All Passes

Search period start: 11 February 2016 00:00
Search period end: 21 February 2016 00:00
Orbit: 398 x 408 km, 51.6° (Epoch: 11 February)

Date Brightness Start Highest point End Pass type
(mag) Time Alt. Az. Time Alt. Az. Time Alt. Az.
11 Feb - 14:35:07 10° SSW 14:37:50 24° SE 14:40:32 10° E daylight
11 Feb - 16:10:58 10° WSW 16:14:07 45° NNW 16:17:16 10° NE daylight
11 Feb - 17:48:45 10° NW 17:51:09 19° N 17:53:33 10° NE daylight
11 Feb - 19:25:48 10° NW 19:28:24 22° NNE 19:31:01 10° ENE visible
11 Feb - 21:02:00 10° NW 21:05:15 77° NNE 21:08:29 10° ESE night (unlit)
11 Feb - 22:39:37 10° W 22:41:17 13° SW 22:42:57 10° SSW night (unlit)
12 Feb - 13:43:40 10° SSE 13:45:20 13° SE 13:46:59 10° E daylight
12 Feb - 15:18:08 10° WSW 15:21:22 78° NNW 15:24:38 10° NE daylight
12 Feb - 16:55:36 10° WNW 16:58:12 22° NNW 17:00:49 10° NE daylight
12 Feb - 18:33:04 10° NW 18:35:28 19° N 18:37:52 10° NE visible
12 Feb - 20:09:21 10° NW 20:12:30 45° NNE 20:15:38 10° ESE visible
12 Feb - 21:46:05 10° W 21:48:48 25° SW 21:51:29 10° SSE night (unlit)
13 Feb - 14:25:29 10° SW 14:28:40 56° SE 14:31:52 10° ENE daylight
13 Feb - 16:02:25 10° W 16:05:17 28° NNW 16:08:09 10° NE daylight
13 Feb - 17:40:10 10° NW 17:42:28 18° N 17:44:46 10° NE daylight
13 Feb - 19:16:43 10° NW 19:19:38 30° NNE 19:22:34 10° E visible
13 Feb - 20:53:03 10° WNW 20:56:11 46° SW 20:59:18 10° SE visible
14 Feb - 13:33:08 10° SSW 13:36:01 29° SE 13:38:54 10° ENE daylight
14 Feb - 15:09:17 10° W 15:12:23 40° NNW 15:15:29 10° NE daylight
14 Feb - 16:47:05 10° NW 16:49:27 18° N 16:51:48 10° NE daylight
14 Feb - 18:24:01 10° NW 18:26:41 23° NNE 18:29:22 10° ENE visible
14 Feb - 20:00:13 10° WNW 20:03:28 89° SW 20:06:42 10° SE visible
14 Feb - 21:38:28 10° WSW 21:39:26 11° SW 21:40:23 10° SSW night (unlit)
15 Feb - 12:41:19 10° S 12:43:25 16° SE 12:45:31 10° E daylight
15 Feb - 14:16:17 10° WSW 14:19:31 66° NNW 14:22:46 10° NE daylight
15 Feb - 15:53:52 10° WNW 15:56:25 21° NNW 15:58:57 10° NE daylight
15 Feb - 17:31:13 10° NW 17:33:40 19° N 17:36:07 10° ENE daylight
15 Feb - 19:07:27 10° NW 19:10:39 52° NNE 19:13:49 10° ESE visible
15 Feb - 20:44:22 10° W 20:46:51 21° SW 20:49:21 10° S visible
16 Feb - 13:23:28 10° SW 13:26:42 69° SE 13:29:57 10° ENE daylight
16 Feb - 15:00:35 10° WNW 15:03:23 25° NNW 15:06:11 10° NE daylight
16 Feb - 16:38:17 10° NW 16:40:36 18° N 16:42:55 10° NE daylight
16 Feb - 18:14:43 10° NW 18:17:43 33° NNE 18:20:43 10° E visible
16 Feb - 19:51:08 10° WNW 19:54:11 38° SW 19:57:13 10° SSE visible
17 Feb - 12:30:56 10° SSW 12:33:57 35° SE 12:36:58 10° ENE daylight
17 Feb - 14:07:20 10° W 14:10:23 35° NNW 14:13:25 10° NE daylight
17 Feb - 15:45:09 10° NW 15:47:29 18° N 15:49:49 10° NE daylight
17 Feb - 17:21:57 10° NW 17:24:43 25° NNE 17:27:27 10° ENE daylight
17 Feb - 18:58:10 10° WNW 19:01:25 74° SW 19:04:38 10° SE visible
18 Feb - 11:38:50 10° S 11:41:14 19° SE 11:43:39 10° E daylight
18 Feb - 13:14:12 10° WSW 13:17:24 56° NNW 13:20:38 10° NE daylight
18 Feb - 14:51:52 10° WNW 14:54:21 20° N 14:56:50 10° NE daylight
18 Feb - 16:29:05 10° NW 16:31:37 20° N 16:34:07 10° ENE daylight
18 Feb - 18:05:18 10° NW 18:08:32 61° NNE 18:11:44 10° ESE visible
18 Feb - 19:42:26 10° W 19:44:39 17° SW 19:46:52 10° S visible
19 Feb - 10:48:12 10° SE 10:48:34 10° SE 10:48:56 10° ESE daylight
19 Feb - 12:21:14 10° SW 12:24:30 82° SE 12:27:45 10° ENE daylight
19 Feb - 13:58:30 10° WNW 14:01:13 24° NNW 14:03:57 10° NE daylight
19 Feb - 15:36:07 10° NW 15:38:27 18° N 15:40:47 10° NE daylight
19 Feb - 17:12:27 10° NW 17:15:32 37° NNE 17:18:35 10° E daylight
19 Feb - 18:48:59 10° WNW 18:51:55 32° SW 18:54:51 10° SSE visible
20 Feb - 11:28:31 10° SSW 11:31:37 42° SE 11:34:43 10° ENE daylight
20 Feb - 13:05:08 10° W 13:08:07 32° NNW 13:11:06 10° NE daylight
20 Feb - 14:42:56 10° NW 14:45:15 18° N 14:47:34 10° NE daylight
20 Feb - 16:19:37 10° NW 16:22:27 27° NNE 16:25:16 10° ENE daylight
20 Feb - 17:55:52 10° WNW 17:59:05 62° SW 18:02:16 10° SE daylight
